Weather in Novy

Russia / Republic of Tatarstan     55°42′15″N   52°39′37″E
temp.,
°C
wind,
m/s
gust,
m/s
humid.,
%
clouds,
%
prec.,
mm/h
press.,
hPa
HPBL,
m
10 may, mon
mon1000:00+14se4105726 0.0 1016164
03:00+14sse3458100 0.0 101771
06:00+16se265992 0.0 1019169
09:00+21se4543100 0.0 1019543
12:00+24se4434100 0.0 10202112
15:00+24ese3333100 0.0 10202383
18:00+21ese224969 0.0 102123
21:00+17e225351 0.0 102211
11 may, tue
tue1100:00+16ene225697 0.0 102311
03:00+14ne2261100 0.0 102412
06:00+16e2461100 0.0 1025126
09:00+21e454499 0.0 1026429
12:00+23e4538100 0.0 10261267
15:00+23e453797 0.0 10271682
18:00+21e345299 0.0 102769
21:00+17ese225658 0.0 102819
12 may, wed
wed1200:00+15se22585 0.0 102811
03:00+14ene22581 0.0 102911
06:00+17e24550 0.0 1029132
09:00+22ese34400 0.0 1029613
12:00+24ese34350 0.0 10291782
15:00+24se343769 0.0 10282070
18:00+22se225291 0.0 102816
21:00+18se115829 0.0 102811
13 may, thu
thu1300:00+16e116219 0.0 102811
03:00+15e116814 0.0 102811
06:00+18se1260100 0.0 1029103
09:00+22ese3446100 0.0 1028613
12:00+25se443890 0.0 10282245
15:00+26se3435100 0.0 10272330
18:00+23ese33504 0.0 102645
21:00+19se33565 0.0 102624
14 may, fri
fri1400:00+17sse22615 0.0 102719
03:00+16s11655 0.0 102611
06:00+19s22562 0.0 1027122
09:00+24s34385 0.0 1026702
12:00+26ssw443149 0.0 10251761
15:00+26ssw343214 0.0 10241811
18:00+23sw3351100 0.0 102342
21:00+19ssw2257100 0.0 102315